Regional Weather Roundup
Issued by NWS Newport/Morehead, NC

Current Version | Previous Version | Text Only | Print | Product List | Glossary On
Versions: 1 2 3 4 5 6 7 8 9 10 11 12 13 14 15 16 17 18 19 20 21 22 23 24 25 26 27 28 29 30 31 32 33 34 35 36 37 38 39 40 41 42 43 44 45 46 47 48 49 50
000
ASUS42 KMHX 262313
RWRMHX
WEATHER ROUNDUP FOR EASTERN NORTH CAROLINA
NATIONAL WEATHER SERVICE NEWPORT/MOREHEAD CITY NC
700 PM EDT THU MAY 26 2016

NOTE: "FAIR" INDICATES FEW OR NO CLOUDS BELOW 12,000 FEET
WITH NO SIGNIFICANT WEATHER AND/OR OBSTRUCTIONS TO VISIBILITY

NCZ015>017-031-032-045>047-102-103-270000-
NORTH COAST

CITY           SKY/WX    TMP DP  RH WIND       PRES   REMARKS
EDENTON        SUNNY     82  66  57 S14G21    30.09S
ELIZABETH CITY SUNNY     81  65  58 S14G22    30.09S
KITTY HAWK     PTCLDY    79  66  64 S7        30.11S
MANTEO         NOT AVBL

$$

NCZ045>047-081-094-103-104-270000-
CENTRAL COAST

CITY           SKY/WX    TMP DP  RH WIND       PRES   REMARKS
FRISCO         SUNNY     75  67  76 SW8       30.15F

$$

NCZ095-097-098-100-101-270000-
SOUTHERN COAST

CITY           SKY/WX    TMP DP  RH WIND       PRES   REMARKS
BEAUFORT       SUNNY     76  68  76 S9        30.14F
CEDAR ISLAND   NOT AVBL
JACKSONVILLE   SUNNY     78  63  59 S9        30.12S
PINEY ISLAND   NOT AVBL
WILMINGTON     SUNNY     79  61  53 S10       30.12F


$$

NCZ011>013-027>030-043-044-078>080-089-090>093-098-270000-
COASTAL PLAIN

CITY           SKY/WX    TMP DP  RH WIND       PRES   REMARKS
AHOSKIE        SUNNY     83  62  48 S5        30.06F
CLINTON        SUNNY     84  66  54 S3        30.08F
ELIZABETHTOWN  MOSUNNY   84  66  54 S8        30.09S
GOLDSBORO      MOSUNNY   87  62  43 S8        30.06F
GREENVILLE     SUNNY     86  63  45 S7        30.08F
HAVELOCK       SUNNY     77  63  61 S12       30.14S
KENANSVILLE    SUNNY     84  60  44 CALM      30.09F
KINSTON        SUNNY     82  66  57 S14       30.09S
NEW BERN       SUNNY     79  62  56 S12       30.12F
RICHLANDS      SUNNY     80  63  55 S12       30.11S
ROCKY MOUNT    SUNNY     85  62  46 S5        30.06F
WASHINGTON     SUNNY     81  65  58 S13G18    30.09S
WHITEVILLE     PTSUNNY   81  64  54 S9G17     30.10S

$$

AMZ130-135-150-152-154-156-158-170-250-252-270-ANZ085-086-088-633-658-670-270000-
MARINE OBSERVATIONS

STATION/POSITION TIME  TEMP    WIND        PRES    WAVE   SWELL
                       AIR SEA DIR/SP/G            HT/PER HT/PER
                 (UTC) (F)     (DEG/KT/KT) (MB)    (FT/S) (FT/S)
CHESAPEAKE LIGHT 2300   70     170/ 25/ 25 1018.3
64 E VA BEACH    2250   65 59  180/ 12/ 14 1019.7    2/ 8   2/ 8
DUCK             2200      66  170/ 16/ 19 1018.7
2 E DUCK         2211      68                N/A     2/ 8
OREGON INLET     2200      77  190/ 18/ 20 1020.4
13E OREGON INLT  2300      65                N/A     2/ 7   2/ 7
HATTERAS CG      2200      73  190/  5/ 11 1020.6
DIAMOND BUOY     2250   76 73  210/  6/  8 1021.2    2/ 8   2/ 8
CAPE LOOKOUT     2300   76     180/ 11/ 12 1020.4
BEAUFORT LAB     2200      74  190/ 10/ 13 1020.0
30 SE NEW RVR IN 2225      75                N/A     2/ 8
27 SE WRIGHTSVLE 2208   77 75  200/ 10/ 12 1020.8
5 SE WRIGHTSVLE  2208   76 74  200/ 10/ 14 1021.1
225 S CAPE HAT   2250   76 78   70/ 16/ 17 1020.6    3/ 4   2/ 8
41 SE CHARLESTON 2250   79 78  130/  6/  8 1020.0    2/ 7   2/ 7

$$




USA.gov is the U.S. government's official web portal to all federal, state and local government web resources and services.